Location: Recife
(8.0585°S, 34.8848°W)
Time: 21:53:24
(UTC-03:00)

Courier 1B - Pass Details

Date: 22 April 2026
Orbit: 962 x 1209 km, 28.3° (Epoch: 19 May)

Event Time Altitude Azimuth Distance (km) Brightness Sun altitude
Exits shadow 03:01:22 50° 144° (SE) 1,387 8.3 -35.0°
Drops below altitude 10° 03:06:53 10° 125° (SE) 3,045 10.6 -33.6°
Sets 03:09:47 0° 122° (ESE) 4,038 11.3 -32.9°
